Weather in Gawler

Australia     34°36′05″S   138°44′58″E
temp.,
°C
wind,
m/s
gust,
m/s
humid.,
%
clouds,
%
prec.,
mm/h
press.,
hPa
HPBL,
m
13 may, thu
thu1300:30+10nnw2254100 0.0 101912
03:30+9nnw2263100 0.0 101722
06:30+9nnw35775 0.0 101778
09:30+15wnw6106587 0.0 1018661
12:30+14sw71184100 0.2 1018864
15:30+13sw6969100 0.3 10181059
18:30+12sw5959100 0.1 1020813
21:30+12sw5958100 0.1 1022700
14 may, fri
fri1400:30+12sw595899 0.0 1021711
03:30+12w51065100 0.1 1020555
06:30+12sw5107729 0.1 1021780
09:30+14sw5860100 0.2 10231228
12:30+16sw6853100 0.1 10221635
15:30+15wsw6958100 0.1 10221267
18:30+11wsw397764 0.1 1023212
21:30+13ssw5962100 0.3 1024866
15 may, sat
sat1500:30+13sw5860100 0.0 1024898
03:30+12ssw4862100 0.0 1024407
06:30+13ssw585484 0.0 1025508
09:30+15ssw674731 0.0 10271447
12:30+17sw56403 0.0 10261664
15:30+16wsw764828 0.0 10261493
18:30+11sw3663100 0.0 1028144
21:30+12sw2564100 0.0 1028284
16 may, sun
sun1600:30+12s2559100 0.1 1028245
03:30+12wsw2559100 0.1 1027187
06:30+12wsw1268100 0.1 102863
09:30+14sw2456100 0.1 1029571
12:30+16sw444878 0.2 10281683
15:30+16sw664361 0.2 10271593
18:30+11ssw22673 0.0 102810
21:30+10n117228 0.0 102911
17 may, mon
mon1700:30+11nnw11753 0.0 102953
03:30+9ene11855 0.0 102910
06:30+9ne118813 0.0 103010
09:30+12nnw1274100 0.0 1031194
12:30+16wsw2248100 0.1 10291513
15:30+16sw544827 0.1 10291389
18:30+11sw22680 0.0 103014
21:30+10e22720 0.0 103116